Moron de la Frontera, Spain

9:29 AM CEST on March 29, 2017 (GMT +0200)
Moron Air Base

Weather History for LEMO - January, 2013

Change the Weather History Date:

Saturday, January 5, 2013

  Actual Average Record
Temperature  
Mean Temperature 48 °F -  
Max Temperature 62 °F 60 °F 68 °F (1999)
Min Temperature 35 °F 39 °F 32 °F (2006)
Degree Days  
Heating Degree Days 16    
Moisture  
Dew Point 43 °F    
Average Humidity 87    
Maximum Humidity 100    
Minimum Humidity 59    
Precipitation  
Precipitation 0.00 in - - ()
Sea Level Pressure  
Sea Level Pressure 30.52 in    
Wind  
Wind Speed 1 mph ()    
Max Wind Speed 4 mph    
Max Gust Speed -    
Visibility 5.2 miles    
Events      
Averages and records for this station are not official NWS values.
T = Trace of Precipitation, MM = Missing Value Source: Averaged Metar Reports

Daily Weather History Graph

Daily Weather History Graph

Search for Another Location

Airport or City:

Trip Planner

Search our weather history database for the weather conditions in past years. The results will help you decide how hot, cold, wet, or windy it might be!

Date:

Astronomy

Jan. 05, 2013 Rise Set
Actual Time 8:36 AM CET 6:19 PM CET
Civil Twilight 8:07 AM CET 6:48 PM CET
Nautical Twilight 7:35 AM CET 7:20 PM CET
Astronomical Twilight 7:03 AM CET 7:52 PM CET
Moon 1:32 AM CET (1/5) 12:56 PM CET (1/5)
Length of Visible Light 10h 40m
Length of Day
9h 42m
Waning Gibbous, 47% of the Moon is Illuminated
Jan 5
Waning Gibbous
Jan 11
New
Jan 19
First Quarter
Jan 27
Full
Feb 3
Last Quarter

Hourly Weather History & Observations

Time (CET) Temp. Windchill Dew Point Humidity Pressure Visibility Wind Dir Wind Speed Gust Speed Precip Events Conditions
12:00 AM 41.0 °F - 39.2 °F 93% 30.57 in - Calm Calm - N/A   Clear
1:00 AM 42.8 °F - 41.0 °F 93% 30.54 in - South 1.2 mph - N/A   Clear
2:00 AM 39.2 °F - 39.2 °F 100% 30.54 in - South 1.2 mph - N/A   Clear
3:00 AM 35.6 °F - 35.6 °F 100% 30.54 in - South 1.2 mph - N/A   Clear
4:00 AM 37.4 °F - 37.4 °F 100% 30.54 in - Calm Calm - N/A   Clear
5:00 AM 37.4 °F - 35.6 °F 93% 30.54 in - Variable 1.2 mph - N/A   Clear
6:00 AM 37.4 °F - 37.4 °F 100% 30.54 in - Calm Calm - N/A   Clear
7:00 AM 35.6 °F - 35.6 °F 100% 30.54 in - Calm Calm - N/A   Clear
8:00 AM 35.6 °F - 35.6 °F 100% 30.54 in - Calm Calm - N/A   Clear
9:00 AM 41.0 °F - 41.0 °F 100% 30.57 in 5.0 mi North 1.2 mph - N/A   Unknown
11:00 AM 48.2 °F - 44.6 °F 87% 30.60 in 5.0 mi East 1.2 mph - N/A   Unknown
12:00 PM 53.6 °F - 46.4 °F 77% 30.57 in 5.0 mi Variable 1.2 mph - N/A   Unknown
1:00 PM 57.2 °F - 48.2 °F 72% 30.54 in 5.6 mi Calm Calm - N/A   Unknown
2:00 PM 60.8 °F - 48.2 °F 63% 30.51 in - Variable 1.2 mph - N/A   Clear
3:00 PM 62.6 °F - 48.2 °F 59% 30.51 in - Variable 1.2 mph - N/A   Clear
4:00 PM 62.6 °F - 48.2 °F 59% 30.48 in - Variable 1.2 mph - N/A   Clear
5:00 PM 60.8 °F - 48.2 °F 63% 30.48 in - North 1.2 mph - N/A   Clear
6:00 PM 59.0 °F - 48.2 °F 67% 30.48 in - North 1.2 mph - N/A   Clear
7:00 PM 51.8 °F - 48.2 °F 88% 30.48 in - Calm Calm - N/A   Clear
8:00 PM 48.2 °F - 44.6 °F 87% 30.48 in - Calm Calm - N/A   Clear
9:00 PM 44.6 °F - 42.8 °F 93% 30.48 in - South 1.2 mph - N/A   Clear
10:00 PM 42.8 °F - 42.8 °F 100% 30.48 in - South 2.3 mph - N/A   Clear
11:00 PM 42.8 °F 41.1 °F 42.8 °F 100% 30.51 in - South 3.5 mph - N/A   Clear